FW4672 Weather Reports


time (UTC)temp
C
wind
direction
speed
KPH
gust
KPH
rain 1hr
cm
rain 24hr
cm
rain mn
cm
humidity
%
barometer
mb
20260507104824 14 315 0.0 0.0 0.00 0.00 0.00 90 1035.1
20260507103827 14 337 0.0 0.0 0.00 0.00 0.00 90 1035.2
20260507102925 14 337 0.0 0.0 0.00 0.00 0.00 89 1035.2
20260507101926 15 337 0.0 0.0 0.00 0.00 0.00 88 1035.2
20260507100928 15 337 0.0 0.0 0.00 0.00 0.00 89 1035.2
20260507094927 15 337 0.0 0.0 0.00 0.00 0.00 89 1035.3
20260507093926 15 337 0.0 0.0 0.00 0.00 0.00 89 1035.3
20260507092927 15 328 0.0 0.0 0.00 0.00 0.00 90 1035.4
20260507091927 15 315 0.0 0.0 0.00 0.00 0.00 90 1035.4
20260507091026 15 316 0.0 0.0 0.00 0.00 0.00 89 1035.5
20260507090025 15 337 0.0 0.0 0.00 0.00 0.00 90 1035.6
20260507085026 15 315 0.0 0.0 0.00 0.00 0.00 89 1035.7
20260507084026 15 315 0.0 0.0 0.00 0.00 0.00 89 1035.8
20260507083027 15 315 0.0 0.0 0.00 0.00 0.00 89 1035.9
20260507082125 15 315 0.0 0.0 0.00 0.00 0.00 90 1036.0
20260507080126 15 315 0.0 0.0 0.00 0.00 0.00 90 1036.2
20260507080025 15 315 0.0 0.0 0.00 0.00 0.00 89 1036.2
20260507074026 15 315 0.0 0.0 0.00 0.00 0.00 90 1036.2
20260507073028 15 337 0.0 0.0 0.00 0.00 0.00 90 1036.2
20260507072026 15 360 0.0 0.0 0.00 0.00 0.00 90 1036.2
20260507071025 14 360 0.0 0.0 0.00 0.00 0.00 90 1036.4
20260507061124 15 360 0.0 0.0 0.00 0.00 0.00 88 1036.4
20260507060127 15 360 0.0 0.0 0.00 0.00 0.00 88 1036.5
20260507055224 15 360 0.0 0.0 0.00 0.00 0.00 88 1036.5
20260507054226 15 337 0.0 0.0 0.00 0.00 0.00 88 1036.5
20260507053226 15 328 0.0 0.0 0.00 0.00 0.00 88 1036.5
20260507052224 15 337 0.0 0.0 0.00 0.00 0.00 88 1036.5
20260507051225 15 337 0.0 0.0 0.00 0.00 0.00 88 1036.5
20260507045324 15 360 0.0 0.0 0.00 0.00 0.00 89 1036.4
20260507045224 15 357 0.0 0.0 0.00 0.00 0.00 89 1036.4
20260507044226 15 360 0.0 0.0 0.00 0.00 0.00 88 1036.4
20260507043225 15 338 0.0 0.0 0.00 0.00 0.00 88 1036.2
20260507041324 15 360 0.0 0.0 0.00 0.00 0.00 89 1036.2
20260507040325 16 360 0.0 0.0 0.00 0.00 0.00 89 1036.2
20260507035325 15 355 0.0 0.0 0.00 0.00 0.00 89 1036.2
20260507034326 16 360 0.0 0.0 0.00 0.00 0.00 89 1036.1
20260507033423 16 346 0.0 0.0 0.00 0.00 0.00 89 1036.0
20260507032425 16 353 0.0 0.0 0.00 0.00 0.00 88 1035.8
20260507030425 16 349 0.0 0.0 0.00 0.00 0.00 87 1035.7
20260507025424 16 342 0.0 0.0 0.00 0.00 0.00 86 1035.7
20260507024426 16 337 0.0 0.0 0.00 0.00 0.00 86 1035.6
20260507023425 16 316 0.0 0.0 0.00 0.00 0.00 85 1035.5
20260507022424 17 351 0.0 0.0 0.00 0.00 0.00 86 1035.5
20260507021427 17 339 0.0 0.0 0.00 0.00 0.00 86 1035.3
20260507020524 17 353 0.0 0.0 0.00 0.00 0.00 86 1035.2
20260507015525 17 341 0.0 0.0 0.00 0.00 0.00 85 1035.2
20260507013525 19 327 0.0 0.0 0.00 0.00 0.00 83 1035.1
20260507011526 20 328 0.0 0.0 0.00 0.00 0.00 85 1035.1
20260507005624 20 325 0.0 0.0 0.00 0.00 0.00 86 1035.0
20260507004626 20 319 0.0 0.0 0.00 0.00 0.00 86 1034.9
20260507003624 20 322 0.0 0.0 0.00 0.00 0.00 84 1034.9
20260507002625 20 333 0.0 0.0 0.00 0.00 0.00 85 1034.8
20260507001625 20 325 0.0 0.0 0.00 0.00 0.00 86 1034.9
20260507000624 20 330 0.0 0.0 0.00 0.00 0.00 85 1034.8
20260506235625 21 328 0.0 0.0 0.00 0.00 0.00 84 1034.6
20260506234624 21 321 0.0 0.0 0.00 0.00 0.00 84 1034.6
20260506233626 21 320 0.0 0.0 0.00 0.00 0.00 85 1034.6
20260506224743 21 325 0.0 0.0 0.00 0.00 0.00 84 1035.0
20260506223725 21 318 0.0 0.0 0.00 0.00 0.00 82 1034.9
20260506221726 20 326 0.0 0.0 0.00 0.00 0.00 83 1035.2
20260506215827 20 333 0.0 0.0 0.00 0.00 0.00 84 1035.4
20260506214926 20 320 0.0 0.0 0.00 0.00 0.00 85 1035.4
20260506213925 20 325 0.0 0.0 0.00 0.00 0.00 86 1035.4
20260506212924 20 332 0.0 0.0 0.00 0.00 0.00 85 1035.5
20260506211925 20 327 0.0 0.0 0.00 0.00 0.00 86 1035.6
20260506211024 20 326 0.0 0.0 0.00 0.00 0.00 84 1035.7
20260506210025 20 319 0.0 0.0 0.00 0.00 0.00 83 1035.8
20260506205024 20 318 0.0 0.0 0.00 0.00 0.00 83 1035.8
20260506204025 20 320 0.0 0.0 0.00 0.00 0.00 85 1036.0
20260506203026 19 327 0.0 0.0 0.00 0.00 0.00 87 1036.0
20260506202123 18 318 0.0 0.0 0.00 0.00 0.00 86 1036.0
20260506201126 18 325 0.0 0.0 0.00 0.00 0.00 85 1036.1
20260506195125 18 320 0.0 0.0 0.00 0.00 0.00 83 1036.3
20260506194127 18 318 0.0 0.0 0.00 0.00 0.00 82 1036.5
20260506193225 18 324 0.0 0.0 0.00 0.00 0.00 83 1036.7
20260506192225 18 322 0.0 0.0 0.00 0.00 0.00 83 1036.7
20260506191225 18 320 0.0 0.0 0.00 0.00 0.00 83 1036.7
20260506185226 18 319 0.0 0.0 0.00 0.00 0.00 80 1036.9
20260506184226 17 320 0.0 0.0 0.00 0.00 0.00 79 1037.1
20260506183225 17 320 0.0 0.0 0.00 0.00 0.00 77 1037.0
20260506182226 17 319 0.0 0.0 0.00 0.00 0.00 79 1037.1
20260506181241 17 319 0.0 0.0 0.00 0.00 0.00 79 1037.2
20260506180323 17 320 0.0 0.0 0.00 0.00 0.00 79 1037.3
20260506175325 17 318 0.0 0.0 0.00 0.00 0.00 79 1037.3
20260506174425 17 319 0.0 0.0 0.00 0.00 0.00 79 1037.3
20260506173425 17 317 0.0 0.0 0.00 0.00 0.00 80 1037.4
20260506172425 16 316 0.0 0.0 0.00 0.00 0.00 79 1037.4
20260506171524 16 320 0.0 0.0 0.00 0.00 0.00 79 1037.5
20260506170525 16 318 0.0 0.0 0.00 0.00 0.00 82 1037.5
20260506165525 16 321 0.0 0.0 0.00 0.00 0.00 82 1037.5
20260506164524 16 330 0.0 0.0 0.00 0.00 0.00 80 1037.5
20260506163525 16 320 0.0 0.0 0.00 0.00 0.00 79 1037.6
20260506161527 16 336 0.0 0.0 0.00 0.00 0.00 79 1037.4
20260506160527 16 318 0.0 0.0 0.00 0.00 0.00 81 1037.3
20260506155526 16 315 0.0 0.0 0.00 0.00 0.00 81 1037.3
20260506153524 16 359 0.0 0.0 0.00 0.00 0.00 83 1037.3
20260506152525 16 189 0.0 0.0 0.00 0.00 0.00 78 1037.3
20260506151526 16 180 0.0 0.0 0.00 0.00 0.00 77 1037.3
20260506150624 15 214 0.0 0.0 0.00 0.00 0.00 76 1037.4
20260506145626 15 268 0.0 0.0 0.00 0.00 0.00 76 1037.3
20260506143725 14 189 0.0 0.0 0.00 0.00 0.00 78 1037.3
20260506142725 14 326 0.0 0.0 0.00 0.00 0.00 80 1037.3
20260506141725 13 239 0.0 0.0 0.00 0.00 0.00 81 1037.2
20260506140726 13 325 0.0 0.0 0.00 0.00 0.00 83 1037.1
20260506133725 12 191 0.0 0.0 0.00 0.00 0.00 85 1037.0
20260506132725 12 322 0.0 0.0 0.00 0.00 0.00 86 1037.0
20260506131724 12 325 0.0 0.0 0.00 0.00 0.00 86 1036.8
20260506130725 12 299 0.0 0.0 0.00 0.00 0.00 85 1036.7
20260506125726 12 182 0.0 0.0 0.00 0.00 0.00 86 1036.7
20260506123824 12 337 0.0 0.0 0.00 0.00 0.00 86 1036.5
20260506122824 12 268 0.0 0.0 0.00 0.00 0.00 85 1036.4
20260506115924 12 337 0.0 0.0 0.00 0.00 0.00 86 1036.4
20260506115826 12 308 0.0 0.0 0.00 0.00 0.00 85 1036.4
20260506114825 12 337 0.0 0.0 0.00 0.00 0.00 86 1036.4
20260506112924 12 337 0.0 0.0 0.00 0.00 0.00 83 1036.3
20260506111925 12 182 0.0 0.0 0.00 0.00 0.00 83 1036.3
20260506110925 12 337 0.0 0.0 0.00 0.00 0.00 83 1036.2